CZ-4B DEB, 43660

Orbit data source: Space-Track

CZ-4B DEB, 43660 is space debris in SSO originally from a launch on Wed, 24 Oct 2018 UTC launched from the Taiyaun Space Center, China (TSC). Debris objects in space refer to the collection of defunct objects orbiting the Earth. Examples of debris include non-operational satellites, rocket bodies, and fragments generated from explosions, collisions, or faulty payload assembly.

Loading next visibility...
Identifier
43660, 2018-081D
Orbit
SSO
Country
Flag of CNCN / PRC
Related business
Manufacturer
SAST
Mission
Spacecraft
Bus & Motor
Unknown
Mass
Unknown
Launch date (UTC)
2018-10-24 (7 years ago)
Launch vehicle
Unknown
Launch site
Taiyaun Space Center, China (TSC)
Object type
Payload
Rocket body
Debris
Shape & HBR
Unknown
Radar Cross Section
Small (<0.1 m²)

Expand to show TLE details & history
Last TLE update: 23 hours ago

TLE from 23 hours ago
0 CZ-4B DEB
1 43660U 18081D   25257.32951133  .00000029  00000-0  58332-4 0  9991
2 43660  99.1415 285.8278 0013649  29.8306 330.3629 13.90500067349576
Epoch: 2025-09-14T07:54Z
TLE epoch observation values (Epoch: 2025-09-14T07:54:29.778Z)
Latitude
0.00004°
Longitude
173.65364°
Altitude
921.074 km
Speed
7.396 km/s
True Right ascension
19h 03m 18s
True Declination
0° 00' 00"
Sunlit
Object was in daylight at epoch
Visualization orbit readout
Latitude
Unknown
Longitude
Unknown
Altitude
Unknown
Speed
Unknown
Apparent Right ascension
Unknown
Apparent Declination
Unknown
Sunlit
N/A
Visualization observer readout
Local Sidereal Time
23:30:51
Azimuth
Unknown
Elevation
Unknown
Doppler factor
Unknown
Orbital elements
Apogee altitude
934.065 km
Perigee altitude
914.131 km
Semi-major axis
7,302.235 km
Eccentricity
0.00136
Inclination
99.1415°
RAAN
285.8278°
Arg. of periapsis
29.8306°
True anomaly
330.28544°
Mean anomaly
330.3629°
Eccentric anomaly
330.32418°
Mean motion
3.47824 °/min
Orbital period
103.5 mins
BSTAR
0.000058332
Loading maneuver chart data...
Computing Atmospheric mass density...
Loading historical data...
Loading historical data...
Loading historical data...
Loading historical data...
Loading historical data...
Loading historical data...
Loading historical data...

Documentation

Showing up to 5 results
|